GIFIT EGNT-EGNH

Flight info

Callsign GIFIT
Flight time 0h 49m
Altitude 6000
Route NT DCT BPL
Aircraft DA40/L-SBDGRY/S

Departure

Time 2026-04-26 19:26
Airport Newcastle International Airport (EGNT)

Arrival

Time 2026-04-26 20:15
Airport Blackpool Airport (EGNH)
Time Latitude Longitude Altitude Speed Heading
2026-04-26 19:19 55.03368 -1.69882 261 ft 0 kts 310°
2026-04-26 19:23 55.03370 -1.69885 261 ft 1 kts 330°
2026-04-26 19:23 55.03418 -1.69862 263 ft 10 kts 21°
2026-04-26 19:24 55.03477 -1.69833 266 ft 10 kts 360°
2026-04-26 19:24 55.03560 -1.69797 265 ft 14 kts 18°
2026-04-26 19:24 55.03741 -1.69169 255 ft 67 kts 65°
2026-04-26 19:25 55.03979 -1.68326 318 ft 82 kts 65°
2026-04-26 19:25 55.04064 -1.68028 370 ft 82 kts 69°
2026-04-26 19:25 55.04449 -1.66388 584 ft 91 kts 74°
2026-04-26 19:25 55.04494 -1.65320 781 ft 89 kts 117°
2026-04-26 19:26 55.03998 -1.64655 962 ft 89 kts 166°
2026-04-26 19:26 55.03507 -1.65032 1243 ft 76 kts 225°
2026-04-26 19:26 55.03102 -1.65592 1420 ft 76 kts 220°
2026-04-26 19:26 55.02694 -1.66173 1564 ft 77 kts 221°
2026-04-26 19:27 55.02269 -1.66767 1718 ft 78 kts 221°
2026-04-26 19:27 55.01849 -1.67365 1876 ft 77 kts 221°
2026-04-26 19:27 55.01439 -1.67949 2028 ft 77 kts 221°
2026-04-26 19:27 55.01018 -1.68538 2179 ft 78 kts 221°
2026-04-26 19:28 55.00594 -1.69120 2336 ft 78 kts 219°
2026-04-26 19:28 55.00145 -1.69667 2493 ft 79 kts 218°
2026-04-26 19:28 54.99695 -1.70202 2649 ft 78 kts 217°
2026-04-26 19:28 54.99239 -1.70735 2789 ft 80 kts 217°
2026-04-26 19:29 54.98926 -1.71095 2868 ft 82 kts 217°
2026-04-26 19:29 54.98441 -1.71647 3012 ft 85 kts 217°
2026-04-26 19:29 54.97935 -1.72222 3151 ft 89 kts 217°
2026-04-26 19:29 54.97408 -1.72819 3294 ft 92 kts 216°
2026-04-26 19:30 54.96862 -1.73437 3439 ft 94 kts 216°
2026-04-26 19:30 54.96311 -1.74055 3573 ft 95 kts 216°
2026-04-26 19:30 54.95746 -1.74690 3708 ft 98 kts 216°
2026-04-26 19:30 54.95363 -1.75119 3803 ft 99 kts 216°
2026-04-26 19:31 54.94588 -1.75986 4003 ft 99 kts 216°
2026-04-26 19:31 54.94008 -1.76636 4162 ft 100 kts 216°
2026-04-26 19:31 54.93424 -1.77290 4314 ft 100 kts 216°
2026-04-26 19:31 54.92881 -1.77897 4461 ft 100 kts 217°
2026-04-26 19:32 54.92357 -1.78483 4603 ft 100 kts 217°
2026-04-26 19:32 54.91773 -1.79136 4749 ft 100 kts 217°
2026-04-26 19:32 54.91186 -1.79791 4913 ft 100 kts 217°
2026-04-26 19:32 54.90598 -1.80448 5068 ft 101 kts 217°
2026-04-26 19:33 54.90013 -1.81101 5216 ft 101 kts 217°
2026-04-26 19:33 54.89429 -1.81752 5365 ft 100 kts 217°
2026-04-26 19:33 54.88834 -1.82416 5521 ft 101 kts 217°
2026-04-26 19:33 54.88243 -1.83075 5673 ft 102 kts 217°
2026-04-26 19:34 54.87645 -1.83743 5827 ft 103 kts 217°
2026-04-26 19:34 54.87037 -1.84420 5978 ft 105 kts 217°
2026-04-26 19:34 54.86391 -1.85144 5998 ft 116 kts 217°
2026-04-26 19:34 54.85687 -1.85929 6005 ft 123 kts 216°
2026-04-26 19:35 54.84942 -1.86760 5998 ft 129 kts 216°
2026-04-26 19:35 54.84185 -1.87602 5994 ft 131 kts 216°
2026-04-26 19:35 54.83416 -1.88457 5994 ft 132 kts 216°
2026-04-26 19:35 54.82645 -1.89313 5998 ft 132 kts 216°
2026-04-26 19:36 54.81866 -1.90179 5991 ft 133 kts 216°
2026-04-26 19:36 54.81350 -1.90753 5993 ft 133 kts 216°
2026-04-26 19:36 54.80312 -1.91902 5991 ft 132 kts 216°
2026-04-26 19:36 54.79536 -1.92763 5995 ft 132 kts 216°
2026-04-26 19:37 54.78759 -1.93624 5992 ft 133 kts 216°
2026-04-26 19:37 54.77983 -1.94485 5992 ft 132 kts 216°
2026-04-26 19:37 54.77210 -1.95342 5989 ft 132 kts 216°
2026-04-26 19:37 54.76435 -1.96200 5999 ft 132 kts 216°
2026-04-26 19:38 54.75661 -1.97056 5993 ft 132 kts 216°
2026-04-26 19:38 54.74881 -1.97920 6002 ft 134 kts 216°
2026-04-26 19:38 54.74108 -1.98774 6003 ft 133 kts 216°
2026-04-26 19:38 54.73317 -1.99647 5991 ft 132 kts 216°
2026-04-26 19:39 54.72555 -2.00489 5991 ft 131 kts 216°
2026-04-26 19:39 54.71793 -2.01330 5990 ft 130 kts 216°
2026-04-26 19:39 54.71025 -2.02176 5994 ft 131 kts 216°
2026-04-26 19:39 54.70260 -2.03022 5987 ft 130 kts 216°
2026-04-26 19:40 54.69499 -2.03861 5986 ft 130 kts 216°
2026-04-26 19:40 54.68735 -2.04702 5985 ft 130 kts 216°
2026-04-26 19:40 54.67970 -2.05547 5991 ft 131 kts 216°
2026-04-26 19:40 54.67201 -2.06393 5987 ft 131 kts 216°
2026-04-26 19:41 54.66438 -2.07231 5989 ft 130 kts 216°
2026-04-26 19:41 54.65672 -2.08074 5997 ft 131 kts 216°
2026-04-26 19:41 54.64902 -2.08922 5985 ft 130 kts 216°
2026-04-26 19:41 54.64399 -2.09475 5989 ft 129 kts 216°
2026-04-26 19:42 54.63387 -2.10586 5998 ft 130 kts 216°
2026-04-26 19:42 54.62631 -2.11416 5987 ft 130 kts 216°
2026-04-26 19:42 54.61872 -2.12249 5994 ft 129 kts 216°
2026-04-26 19:42 54.61119 -2.13076 5986 ft 128 kts 216°
2026-04-26 19:43 54.60366 -2.13901 5992 ft 128 kts 216°
2026-04-26 19:43 54.59612 -2.14727 5986 ft 128 kts 216°
2026-04-26 19:43 54.58856 -2.15557 5986 ft 129 kts 216°
2026-04-26 19:43 54.58093 -2.16392 5986 ft 129 kts 216°
2026-04-26 19:44 54.57337 -2.17219 5987 ft 129 kts 216°
2026-04-26 19:44 54.56582 -2.18046 5986 ft 128 kts 216°
2026-04-26 19:44 54.55828 -2.18870 5989 ft 128 kts 216°
2026-04-26 19:44 54.55077 -2.19690 5984 ft 128 kts 216°
2026-04-26 19:45 54.54324 -2.20514 5984 ft 128 kts 216°
2026-04-26 19:45 54.53569 -2.21339 5985 ft 128 kts 216°
2026-04-26 19:45 54.52811 -2.22166 5991 ft 130 kts 216°
2026-04-26 19:45 54.52046 -2.23002 5991 ft 131 kts 216°
2026-04-26 19:46 54.51288 -2.23828 5993 ft 130 kts 216°
2026-04-26 19:46 54.50532 -2.24685 5993 ft 130 kts 219°
2026-04-26 19:46 54.49804 -2.25610 5991 ft 130 kts 219°
2026-04-26 19:46 54.49070 -2.26518 5992 ft 130 kts 219°
2026-04-26 19:47 54.48334 -2.27429 5993 ft 130 kts 219°
2026-04-26 19:47 54.47838 -2.28037 6000 ft 130 kts 219°
2026-04-26 19:47 54.46867 -2.29235 5993 ft 130 kts 219°
2026-04-26 19:47 54.46131 -2.30152 5995 ft 131 kts 219°
2026-04-26 19:48 54.45390 -2.31067 6002 ft 131 kts 219°
2026-04-26 19:48 54.44651 -2.31981 5998 ft 131 kts 219°
2026-04-26 19:48 54.43910 -2.32895 6000 ft 131 kts 219°
2026-04-26 19:48 54.43177 -2.33796 5998 ft 131 kts 219°
2026-04-26 19:49 54.42435 -2.34715 5999 ft 129 kts 219°
2026-04-26 19:49 54.41706 -2.35600 6005 ft 128 kts 218°
2026-04-26 19:49 54.40990 -2.36476 5995 ft 128 kts 219°
2026-04-26 19:49 54.40265 -2.37370 6009 ft 129 kts 219°
2026-04-26 19:50 54.39536 -2.38265 5995 ft 129 kts 219°
2026-04-26 19:50 54.38808 -2.39161 5997 ft 129 kts 219°
2026-04-26 19:50 54.38078 -2.40064 6002 ft 129 kts 219°
2026-04-26 19:50 54.37348 -2.40968 5999 ft 130 kts 219°
2026-04-26 19:51 54.36615 -2.41878 6000 ft 130 kts 219°
2026-04-26 19:51 54.35883 -2.42783 5998 ft 129 kts 219°
2026-04-26 19:51 54.35165 -2.43670 6000 ft 129 kts 219°
2026-04-26 19:51 54.34436 -2.44573 5999 ft 129 kts 219°
2026-04-26 19:52 54.33707 -2.45479 6002 ft 130 kts 219°
2026-04-26 19:52 54.32977 -2.46386 6002 ft 129 kts 219°
2026-04-26 19:52 54.32247 -2.47292 6007 ft 130 kts 219°
2026-04-26 19:52 54.31518 -2.48197 6001 ft 129 kts 219°
2026-04-26 19:53 54.30795 -2.49095 5997 ft 128 kts 219°
2026-04-26 19:53 54.30077 -2.49991 5999 ft 128 kts 219°
2026-04-26 19:53 54.29354 -2.50893 5998 ft 127 kts 219°
2026-04-26 19:53 54.28647 -2.51767 6004 ft 126 kts 218°
2026-04-26 19:54 54.27931 -2.52660 6003 ft 128 kts 219°
2026-04-26 19:54 54.27218 -2.53557 6011 ft 127 kts 219°
2026-04-26 19:54 54.26500 -2.54455 6009 ft 129 kts 219°
2026-04-26 19:54 54.25772 -2.55362 6009 ft 130 kts 218°
2026-04-26 19:55 54.25028 -2.56252 6012 ft 131 kts 214°
2026-04-26 19:55 54.24225 -2.57003 6013 ft 131 kts 212°
2026-04-26 19:55 54.23435 -2.57739 6014 ft 131 kts 212°
2026-04-26 19:55 54.22639 -2.58482 6014 ft 130 kts 212°
2026-04-26 19:56 54.21844 -2.59224 6008 ft 130 kts 212°
2026-04-26 19:56 54.21051 -2.59965 6007 ft 130 kts 212°
2026-04-26 19:56 54.20262 -2.60700 6013 ft 129 kts 211°
2026-04-26 19:56 54.19472 -2.61440 6003 ft 130 kts 212°
2026-04-26 19:57 54.18681 -2.62180 6003 ft 129 kts 212°
2026-04-26 19:57 54.17892 -2.62913 5999 ft 129 kts 212°
2026-04-26 19:57 54.17105 -2.63651 6005 ft 129 kts 212°
2026-04-26 19:57 54.16315 -2.64388 6002 ft 129 kts 212°
2026-04-26 19:58 54.15523 -2.65128 6002 ft 130 kts 211°
2026-04-26 19:58 54.14709 -2.65795 6004 ft 130 kts 205°
2026-04-26 19:58 54.13865 -2.66356 5998 ft 130 kts 205°
2026-04-26 19:58 54.13021 -2.66919 6001 ft 130 kts 205°
2026-04-26 19:59 54.12176 -2.67480 6008 ft 130 kts 205°
2026-04-26 19:59 54.11330 -2.68038 6008 ft 131 kts 205°
2026-04-26 19:59 54.10483 -2.68600 6002 ft 130 kts 205°
2026-04-26 19:59 54.09638 -2.69165 5999 ft 130 kts 205°
2026-04-26 20:00 54.08795 -2.69725 5997 ft 130 kts 205°
2026-04-26 20:00 54.07954 -2.70289 5998 ft 130 kts 205°
2026-04-26 20:00 54.07109 -2.70856 6004 ft 131 kts 205°
2026-04-26 20:00 54.06273 -2.71419 6008 ft 131 kts 205°
2026-04-26 20:01 54.05425 -2.71987 5999 ft 131 kts 205°
2026-04-26 20:01 54.04577 -2.72559 6003 ft 131 kts 205°
2026-04-26 20:01 54.03728 -2.73133 6000 ft 131 kts 205°
2026-04-26 20:01 54.02879 -2.73706 5997 ft 132 kts 205°
2026-04-26 20:02 54.02027 -2.74282 5996 ft 132 kts 205°
2026-04-26 20:02 54.01174 -2.74859 5999 ft 132 kts 205°
2026-04-26 20:02 54.00319 -2.75438 6002 ft 132 kts 205°
2026-04-26 20:02 53.99771 -2.75812 5999 ft 132 kts 205°
2026-04-26 20:03 53.98637 -2.76584 5992 ft 132 kts 205°
2026-04-26 20:03 53.97783 -2.77165 6001 ft 132 kts 205°
2026-04-26 20:03 53.96931 -2.77746 5998 ft 132 kts 205°
2026-04-26 20:03 53.96080 -2.78328 6000 ft 132 kts 205°
2026-04-26 20:04 53.95230 -2.78910 5996 ft 131 kts 205°
2026-04-26 20:04 53.94381 -2.79488 5995 ft 132 kts 205°
2026-04-26 20:04 53.93531 -2.80069 5990 ft 132 kts 205°
2026-04-26 20:04 53.92680 -2.80652 5989 ft 132 kts 205°
2026-04-26 20:05 53.91823 -2.81240 5945 ft 135 kts 205°
2026-04-26 20:05 53.90946 -2.81846 5873 ft 137 kts 205°
2026-04-26 20:05 53.90057 -2.82463 5795 ft 139 kts 205°
2026-04-26 20:05 53.89162 -2.83085 5723 ft 139 kts 205°
2026-04-26 20:06 53.88265 -2.83710 5650 ft 139 kts 205°
2026-04-26 20:06 53.87367 -2.84336 5573 ft 139 kts 205°
2026-04-26 20:06 53.86472 -2.84962 5501 ft 139 kts 205°
2026-04-26 20:06 53.85574 -2.85592 5419 ft 139 kts 205°
2026-04-26 20:07 53.84682 -2.86222 5349 ft 139 kts 205°
2026-04-26 20:07 53.83789 -2.86855 5271 ft 139 kts 205°
2026-04-26 20:07 53.82899 -2.87485 5194 ft 138 kts 205°
2026-04-26 20:07 53.82013 -2.88114 5119 ft 138 kts 205°
2026-04-26 20:08 53.81142 -2.88737 5046 ft 138 kts 205°
2026-04-26 20:08 53.80260 -2.89370 4969 ft 138 kts 205°
2026-04-26 20:08 53.79378 -2.90001 4882 ft 137 kts 205°
2026-04-26 20:08 53.78547 -2.90596 4702 ft 122 kts 205°
2026-04-26 20:09 53.77794 -2.91129 4474 ft 114 kts 205°
2026-04-26 20:09 53.77084 -2.91629 4251 ft 108 kts 205°
2026-04-26 20:09 53.76399 -2.92112 4032 ft 108 kts 205°
2026-04-26 20:09 53.75684 -2.92620 3835 ft 114 kts 205°
2026-04-26 20:10 53.74937 -2.93155 3643 ft 119 kts 204°
2026-04-26 20:10 53.74160 -2.93720 3452 ft 123 kts 205°
2026-04-26 20:10 53.73364 -2.94281 3254 ft 125 kts 199°
2026-04-26 20:10 53.72521 -2.94037 3057 ft 132 kts 144°
2026-04-26 20:11 53.71989 -2.92775 2880 ft 135 kts 110°
2026-04-26 20:11 53.72075 -2.91212 2698 ft 138 kts 63°
2026-04-26 20:11 53.72767 -2.90141 2515 ft 137 kts 23°
2026-04-26 20:12 53.74515 -2.88921 2171 ft 134 kts 11°
2026-04-26 20:12 53.75412 -2.89002 1991 ft 130 kts 339°
2026-04-26 20:12 53.76152 -2.89800 1788 ft 123 kts 311°
2026-04-26 20:12 53.76555 -2.91006 1523 ft 116 kts 285°
2026-04-26 20:13 53.76645 -2.92342 1258 ft 113 kts 275°
2026-04-26 20:13 53.76707 -2.93587 1175 ft 97 kts 275°
2026-04-26 20:13 53.76760 -2.94687 1125 ft 98 kts 275°
2026-04-26 20:13 53.76804 -2.95870 1018 ft 105 kts 275°
2026-04-26 20:14 53.76863 -2.97117 884 ft 109 kts 275°
2026-04-26 20:14 53.76946 -2.98396 773 ft 109 kts 279°
2026-04-26 20:14 53.76996 -2.99686 461 ft 111 kts 276°
2026-04-26 20:14 53.77064 -3.00976 198 ft 108 kts 277°
2026-04-26 20:15 53.77123 -3.02207 57 ft 97 kts 277°
2026-04-26 20:15 53.77177 -3.03233 45 ft 77 kts 271°
2026-04-26 20:15 53.77203 -3.03867 46 ft 26 kts 274°
2026-04-26 20:15 53.77217 -3.04160 43 ft 24 kts 267°
2026-04-26 20:16 53.77229 -3.04317 43 ft 10 kts 297°
2026-04-26 20:16 53.77282 -3.04370 44 ft 9 kts 340°
2026-04-26 20:16 53.77347 -3.04400 44 ft 10 kts 355°
2026-04-26 20:16 53.77429 -3.04384 44 ft 15 kts 17°
2026-04-26 20:17 53.77521 -3.04293 44 ft 16 kts 30°
2026-04-26 20:17 53.77617 -3.04199 44 ft 15 kts 26°
2026-04-26 20:17 53.77664 -3.04154 44 ft 8 kts 25°
2026-04-26 20:17 53.77720 -3.04121 44 ft 8 kts 359°
2026-04-26 20:18 53.77756 -3.04132 44 ft 1 kts 328°
2026-04-26 20:18 53.77760 -3.04149 44 ft 1 kts 264°
2026-04-26 20:18 53.77756 -3.04159 44 ft 0 kts 217°